[TLELIST] Archives

 

[TLELIST] Current TLEs

September 21st 2026 PDT

0 HST 1 20580U 90037B 26264.01519126 .00004480 00000-0 13476-3 0 9999 2 20580 28.4729 145.1336 0001861 122.9731 237.1044 15.31706978803271 0 ISS (ZARYA) 1 25544U 98067A 26264.17466374 .00007601 00000-0 14494-3 0 9997 2 25544 51.6309 185.0320 0004778 163.5850 196.5294 15.49206805586633 0 CXO 1 25867U 99040B 26267.22283988 .00001017 00000-0 00000-0 0 9994 2 25867 57.5064 114.1177 7686103 309.2542 0.4828 0.37800426 17690 ...Continue Reading

[TLELIST] Current TLEs

September 20th 2026 PDT

0 HST 1 20580U 90037B 26263.03786471 .00004678 00000-0 14109-3 0 9992 2 20580 28.4728 151.8229 0001904 113.7893 246.2903 15.31699045803125 0 ISS (ZARYA) 1 25544U 98067A 26263.14255447 .00007470 00000-0 14267-3 0 9992 2 25544 51.6307 190.1401 0004820 160.6694 199.4478 15.49188396586472 0 CXO 1 25867U 99040B 26264.57838639 .00000964 00000-0 00000-0 0 9998 2 25867 57.4713 114.1840 7687429 309.3021 0.4302 0.37796833 17684 ...Continue Reading

[TLELIST] Current TLEs

September 19th 2026 PDT

0 HST 1 20580U 90037B 26262.06053281 .00004982 00000-0 15075-3 0 9991 2 20580 28.4729 158.5121 0001930 104.6713 255.4097 15.31690777802971 0 ISS (ZARYA) 1 25544U 98067A 26262.17494103 .00006053 00000-0 11723-3 0 9998 2 25544 51.6309 194.9288 0004806 156.4521 203.6688 15.49173263586327 0 CXO 1 25867U 99040B 26261.93394925 .00000876 00000-0 00000-0 0 9992 2 25867 57.4406 114.2349 7690176 309.3586 0.3765 0.37798297 17674 ...Continue Reading

[TLELIST] Current TLEs

September 18th 2026 PDT

0 HST 1 20580U 90037B 26261.01803921 .00005838 00000-0 17793-3 0 9999 2 20580 28.4729 165.6473 0001953 95.0051 265.0768 15.31682701802816 0 ISS (ZARYA) 1 25544U 98067A 26261.14280998 .00005718 00000-0 11125-3 0 9992 2 25544 51.6307 200.0361 0004823 152.4527 207.6718 15.49160218586163 0 CXO 1 25867U 99040B 26261.93394925 .00000876 00000-0 00000-0 0 9992 2 25867 57.4406 114.2349 7690176 309.3586 0.3765 0.37798297 17674 ...Continue Reading

[TLELIST] Current TLEs

September 17th 2026 PDT

0 HST 1 20580U 90037B 26260.04069580 .00006384 00000-0 19529-3 0 9992 2 20580 28.4729 172.3369 0001956 86.3219 273.7601 15.31673674802661 0 ISS (ZARYA) 1 25544U 98067A 26260.17518021 .00006387 00000-0 12337-3 0 9994 2 25544 51.6308 204.8249 0004816 148.4605 211.6673 15.49147053586016 0 CXO 1 25867U 99040B 26261.93394925 .00000876 00000-0 00000-0 0 9992 2 25867 57.4406 114.2349 7690176 309.3586 0.3765 0.37798297 17674 ...Continue Reading

[TLELIST] Current TLEs

September 17th 2026 PDT

0 HST 1 20580U 90037B 26260.04069580 .00006384 00000-0 19529-3 0 9992 2 20580 28.4729 172.3369 0001956 86.3219 273.7601 15.31673674802661 0 ISS (ZARYA) 1 25544U 98067A 26260.17518021 .00006387 00000-0 12337-3 0 9994 2 25544 51.6308 204.8249 0004816 148.4605 211.6673 15.49147053586016 0 CXO 1 25867U 99040B 26261.93394925 .00000876 00000-0 00000-0 0 9992 2 25867 57.4406 114.2349 7690176 309.3586 0.3765 0.37798297 17674 ...Continue Reading

[TLELIST] Current TLEs

September 16th 2026 PDT

0 HST 1 20580U 90037B 26259.12850264 .00006280 00000-0 19206-3 0 9993 2 20580 28.4730 178.5803 0001952 77.5116 282.5699 15.31663562802523 0 ISS (ZARYA) 1 25544U 98067A 26259.14303184 .00007008 00000-0 13461-3 0 9991 2 25544 51.6310 209.9325 0004908 145.2560 214.8750 15.49133683585853 0 CXO 1 25867U 99040B 26261.93394925 .00000876 00000-0 00000-0 0 9992 2 25867 57.4406 114.2349 7690176 309.3586 0.3765 0.37798297 17674 ...Continue Reading

[TLELIST] Current TLEs

September 15th 2026 PDT

0 HST 1 20580U 90037B 26258.08598845 .00006362 00000-0 19471-3 0 9996 2 20580 28.4731 185.7155 0001912 68.0370 292.0429 15.31653124802369 0 ISS (ZARYA) 1 25544U 98067A 26258.17538348 .00006015 00000-0 11677-3 0 9999 2 25544 51.6311 214.7209 0004917 142.0099 218.1237 15.49120584585708 0 CXO 1 25867U 99040B 26259.29000158 .00000789 00000-0 00000-0 0 9993 2 25867 57.4112 114.2820 7693036 309.4077 0.3912 0.37803042 17664 ...Continue Reading

[TLELIST] Current TLEs

September 14th 2026 PDT

0 HST 1 20580U 90037B 26257.17378261 .00005382 00000-0 16369-3 0 9997 2 20580 28.4732 191.9585 0001881 59.3129 300.7652 15.31641591802221 0 ISS (ZARYA) 1 25544U 98067A 26257.14321681 .00004666 00000-0 92466-4 0 9991 2 25544 51.6309 219.8284 0004931 139.3822 220.7535 15.49107075585545 0 CXO 1 25867U 99040B 26259.29000158 .00000789 00000-0 00000-0 0 9993 2 25867 57.4112 114.2820 7693036 309.4077 0.3912 0.37803042 17664 ...Continue Reading

[TLELIST] Current TLEs

September 13th 2026 PDT

0 HST 1 20580U 90037B 26255.93577969 .00005307 00000-0 16138-3 0 9996 2 20580 28.4731 200.4311 0001822 46.6900 313.3848 15.31629360802030 0 ISS (ZARYA) 1 25544U 98067A 26256.17555434 .00004898 00000-0 96695-4 0 9993 2 25544 51.6307 224.6171 0004917 134.6730 225.4659 15.49096932585393 0 CXO 1 25867U 99040B 26259.28972687 .00000789 00000-0 00000-0 0 9997 2 25867 57.4112 114.2820 7693037 309.4077 0.3538 0.37803005 17668 ...Continue Reading
  • This mailing list is a public mailing list - anyone may join or leave, at any time.
  • This mailing list is announce-only.

International Space Station (ISS) / Hubble Space Telescope (HST) / Chandra X-Ray Observatory Orbital Data via EMAIL

Privacy Policy:

Private list